[[{"header":{"parameterUnit":"m.s-1","parameterCategory":1,"la1":30.2991,"la2":30.254,"lo1":-89.0895,"lo2":-89.0444,"dy":0.0017,"dx":0.0017,"nx":28,"ny":28,"refTime":"2024-03-01T09:00:00:Z","depth":0,"parameterNumber":2,"parameterNumberName":"U-component_of_WINDS"},"data":[0,0,0,0,0,0,0,0,0,0,0,0,0,0,0,0,0,0,0,0,0,0,0,0,0,0,0,0,0,0,0,0,0,0,0,0,0,0,0,0,0,0,0,0,0,0,0,0,0,0,0,0,0,0,0,0,0,0,-1.665,-1.6651,0,-1.6688,-1.6688,-1.6689,-1.6663,-1.6662,-1.6661,-1.666,-1.6699,-1.6701,-1.6704,0,0,0,0,0,0,0,0,0,0,0,0,0,-1.6558,-1.656,-1.665,-1.6651,-1.6651,-1.6688,-1.6688,-1.6689,-1.6663,-1.6662,-1.666,-1.6659,-1.6699,-1.6701,-1.6704,0,0,0,0,0,0,0,0,0,0,0,0,0,-1.6597,-1.6561,-1.665,-1.6643,-1.6642,-1.6688,-1.6688,-1.6689,-1.6663,-1.6662,-1.666,-1.6658,-1.6698,-1.6701,-1.6704,-1.6759,0,0,-1.6714,-1.6715,0,0,0,0,0,0,0,0,-1.6595,-1.6601,-1.6643,-1.6643,-1.6643,-1.6669,-1.6671,-1.6713,-1.6664,-1.6656,-1.6659,-1.6657,-1.6691,-1.6694,-1.6705,-1.6761,-1.6763,-1.6714,-1.6716,-1.6718,-1.6719,0,0,0,0,0,0,0,-1.6592,-1.6599,-1.6665,-1.6644,-1.6644,-1.6638,-1.6642,-1.6678,-1.6683,-1.6656,-1.6654,-1.6659,-1.669,-1.6702,-1.6706,-1.6763,-1.6714,-1.6717,-1.6719,-1.672,-1.6867,-1.6869,0,0,0,0,0,0,-1.659,-1.6597,-1.6664,-1.6666,-1.6614,-1.6641,-1.6645,-1.6662,-1.6682,-1.6683,-1.6661,-1.6658,-1.6698,-1.6702,-1.6707,-1.6773,-1.6718,-1.6721,-1.6723,-1.6865,-1.6867,-1.6869,0,0,0,0,0,0,-1.6588,-1.6596,-1.6663,-1.6631,-1.6639,-1.6645,-1.6664,-1.6664,-1.6676,-1.6685,-1.6686,-1.6672,-1.6697,-1.6703,-1.6747,-1.6774,-1.6722,-1.6725,-1.6863,-1.6866,-1.6868,-1.6905,0,0,0,0,0,0,-1.6586,-1.6596,-1.6616,-1.6632,-1.6641,-1.6701,-1.6666,-1.6666,-1.6682,-1.6678,-1.6696,-1.6698,-1.6696,-1.6742,-1.675,-1.6778,-1.6728,-1.686,-1.6864,-1.6867,-1.6902,-1.6909,-1.6916,0,0,0,0,0,-1.6583,-1.6625,-1.6617,-1.6626,-1.6667,-1.6702,-1.6707,-1.6704,-1.6684,-1.6705,-1.6711,-1.6697,-1.677,-1.6747,-1.6755,-1.6785,-1.6858,-1.6863,-1.6867,-1.6899,-1.6908,-1.6915,0,0,0,0,0,0,-1.6613,-1.6627,-1.6619,-1.6668,-1.6684,-1.6698,-1.6724,-1.6714,-1.6736,-1.6732,-1.6727,-1.6732,-1.6777,-1.6786,-1.6759,-1.6839,-1.6811,-1.6818,-1.6832,-1.6841,-1.6848,-1.6845,-1.673,0,0,0,0,0,-1.6626,-1.6653,-1.6664,-1.6706,-1.6715,-1.6718,-1.6734,-1.673,-1.6746,-1.6753,-1.6762,-1.678,-1.6807,-1.6824,-1.685,-1.6903,-1.6907,-1.6928,-1.6935,-1.694,-1.6946,-1.6975,-1.6984,-1.6884,-1.6884,-1.6884,0,0,-1.6652,-1.6663,-1.6681,-1.6713,-1.6725,-1.6754,-1.6724,-1.6756,-1.6777,-1.6758,-1.68,-1.6807,-1.6826,-1.6875,-1.6897,-1.6883,-1.6974,-1.6946,-1.695,-1.6953,-1.698,-1.699,-1.6998,-1.6887,-1.6886,-1.6886,0,0,-1.6714,-1.6725,-1.6762,-1.6774,-1.6793,-1.6795,-1.6804,-1.682,-1.6824,-1.6865,-1.6852,-1.6878,-1.6924,-1.6938,-1.6951,-1.702,-1.7008,-1.7029,-1.7065,-1.7093,-1.7101,-1.7108,-1.7132,-1.7141,-1.7034,-1.7034,-1.7034,0,-1.6744,-1.6786,-1.6782,-1.6815,-1.6829,-1.6813,-1.6851,-1.6864,-1.689,-1.6901,-1.6885,-1.6943,-1.6955,-1.7007,-1.7023,-1.7035,-1.7045,-1.7026,-1.71,-1.7107,-1.7114,-1.7137,-1.7146,-1.7037,-1.7036,-1.7036,-1.7036,0,-1.6823,-1.6852,-1.688,-1.6905,-1.6923,-1.6958,-1.6959,-1.6978,-1.6973,-1.6977,-1.702,-1.7034,-1.7062,-1.7074,-1.7069,-1.7126,-1.7116,-1.7101,-1.7072,-1.7126,-1.7147,-1.7156,-1.704,-1.7039,-1.7038,-1.7038,0,0,-1.6904,-1.6927,-1.6937,-1.6948,-1.6968,-1.6991,-1.7026,-1.7053,-1.7069,-1.7089,-1.7118,-1.7158,-1.7143,-1.7159,-1.7156,-1.7181,-1.7234,-1.7162,-1.7162,-1.7174,-1.7297,-1.7308,-1.7319,-1.7227,-1.7228,-1.723,-1.7295,0,-1.6967,-1.7027,-1.7024,-1.708,-1.7108,-1.7093,-1.7124,-1.7139,-1.7144,-1.7169,-1.7175,-1.7203,-1.7182,-1.7191,-1.7216,-1.7222,-1.7259,-1.7218,-1.7254,-1.7255,-1.7249,-1.733,-1.7342,-1.7403,-1.7304,-1.7305,-1.7306,0,-1.7048,-1.707,-1.7128,-1.7144,-1.7156,-1.7183,-1.7207,-1.7231,-1.7249,-1.7251,-1.7269,-1.7262,-1.7297,-1.7269,-1.7318,-1.729,-1.7305,-1.7311,-1.7313,-1.7316,-1.7283,-1.7334,-1.7423,-1.7431,-1.732,-1.7319,-1.7318,0,-1.7102,-1.7145,-1.7186,-1.7196,-1.7216,-1.7235,-1.7245,-1.7261,-1.7277,-1.7299,-1.731,-1.7336,-1.7351,-1.7371,-1.7372,-1.7351,-1.7422,-1.7393,-1.7425,-1.7425,-1.7439,-1.7438,-1.7531,-1.745,-1.745,-1.745,-1.745,0,-1.7172,-1.7208,-1.721,-1.7235,-1.7275,-1.7273,-1.7313,-1.7321,-1.7335,-1.7362,-1.7352,-1.7377,-1.7377,-1.7403,-1.7404,-1.7445,-1.7451,-1.7454,-1.7454,-1.7454,-1.7454,-1.7463,-1.7459,-1.7452,-1.7452,-1.7451,-1.7451,0,-1.7237,-1.724,-1.7284,-1.7299,-1.7304,-1.7333,-1.7346,-1.7371,-1.7375,-1.7409,-1.7417,-1.7424,-1.7454,-1.7457,-1.7492,-1.7493,-1.7542,-1.7537,-1.7536,-1.7535,-1.7566,-1.7562,-1.7667,-1.768,-1.7592,-1.7592,-1.7593,0,-1.7282,-1.7309,-1.7328,-1.7344,-1.7355,-1.7382,-1.7399,-1.7398,-1.7416,-1.7439,-1.746,-1.7489,-1.7512,-1.7562,-1.757,-1.7597,-1.7593,-1.7628,-1.7597,-1.7597,-1.7593,-1.7591,-1.7594,-1.7633,-1.7634,-1.7635,-1.7636,0,-1.736,-1.736,-1.7384,-1.7409,-1.7429,-1.7449,-1.7468,-1.7482,-1.7483,-1.7504,-1.7535,-1.7553,-1.7589,-1.7618,-1.7645,-1.7655,-1.7646,-1.7646,-1.7654,-1.7655,-1.7652,-1.7654,-1.7551,-1.7643,-1.7642,-1.7642,-1.7641,-1.7641,-1.7416,-1.744,-1.7456,-1.7484,-1.7498,-1.7515,-1.7539,-1.7546,-1.7571,-1.76,-1.7598,-1.7632,-1.765,-1.7685,-1.7697,-1.7724,-1.7713,-1.7725,-1.7728,-1.7731,-1.7734,-1.7649,-1.7729,-1.7729,-1.7729,-1.7729,-1.7729,0,-1.7493,-1.7503,-1.7528,-1.7554,-1.7576,-1.7566,-1.7586,-1.7605,-1.7635,-1.7652,-1.7675,-1.7711,-1.7739,-1.775,-1.7778,-1.7798,-1.7794,-1.7805,-1.7803,-1.7806,-1.7743,-1.7733,-1.7807,-1.7807,-1.7807,-1.7807,-1.7807,-1.7807,-1.7535,-1.7575,-1.7577,-1.7624,-1.7634,-1.7667,-1.7679,-1.7696,-1.771,-1.775,-1.7773,-1.778,-1.7795,-1.7824,-1.785,-1.7853,-1.7863,-1.7876,-1.7877,-1.7818,-1.781,-1.7802,-1.7792,-1.7879,-1.7879,-1.7937,-1.7938,-1.7938]},{"header":{"parameterUnit":"m.s-1","parameterCategory":1,"la1":30.2991,"la2":30.254,"lo1":-89.0895,"lo2":-89.0444,"dy":0.0017,"dx":0.0017,"nx":28,"ny":28,"refTime":"2024-03-01T09:00:00:Z","depth":0,"parameterNumber":3,"parameterNumberName":"V-component_of_WINDS"},"data":[0,0,0,0,0,0,0,0,0,0,0,0,0,0,0,0,0,0,0,0,0,0,0,0,0,0,0,0,0,0,0,0,0,0,0,0,0,0,0,0,0,0,0,0,0,0,0,0,0,0,0,0,0,0,0,0,0,0,0.1896,0.1897,0,0.2,0.2001,0.2002,0.2029,0.2028,0.2028,0.2027,0.214,0.2143,0.2147,0,0,0,0,0,0,0,0,0,0,0,0,0,0.1726,0.1729,0.1895,0.1897,0.1898,0.2,0.2001,0.2003,0.2029,0.2028,0.2028,0.2027,0.2139,0.2143,0.2147,0,0,0,0,0,0,0,0,0,0,0,0,0,0.1812,0.173,0.1895,0.1923,0.1927,0.2,0.2001,0.2003,0.2029,0.2028,0.2027,0.2026,0.2137,0.2142,0.2148,0.2202,0,0,0.2164,0.2167,0,0,0,0,0,0,0,0,0.1807,0.1818,0.1918,0.1922,0.1926,0.2,0.1983,0.207,0.203,0.1991,0.2027,0.2026,0.2095,0.2103,0.2125,0.2207,0.2212,0.2165,0.2168,0.2171,0.2172,0,0,0,0,0,0,0,0.1801,0.1814,0.1937,0.1919,0.1924,0.1933,0.1944,0.1999,0.2047,0.1994,0.1996,0.2008,0.2097,0.212,0.2128,0.2213,0.2165,0.217,0.2173,0.2175,0.2347,0.2348,0,0,0,0,0,0,0.1789,0.1808,0.1934,0.194,0.1862,0.1937,0.1949,0.1978,0.2047,0.2056,0.2009,0.2009,0.2111,0.2122,0.2132,0.2201,0.2171,0.2176,0.2179,0.2346,0.2347,0.2349,0,0,0,0,0,0,0.1785,0.18,0.1929,0.1875,0.1892,0.1941,0.1972,0.198,0.2004,0.2058,0.2067,0.2023,0.2111,0.2125,0.2184,0.2205,0.2178,0.2183,0.2344,0.2346,0.2348,0.2338,0,0,0,0,0,0,0.178,0.1798,0.1818,0.1875,0.1895,0.1977,0.1974,0.1983,0.2012,0.2013,0.2074,0.2083,0.2111,0.2176,0.219,0.2212,0.2187,0.2342,0.2345,0.2347,0.2337,0.234,0.2342,0,0,0,0,0,0.1774,0.1811,0.1818,0.1833,0.1919,0.1978,0.199,0.202,0.2014,0.2035,0.207,0.2081,0.2201,0.2182,0.2198,0.2222,0.2341,0.2344,0.2347,0.2336,0.2339,0.2342,0,0,0,0,0,0,0.1757,0.1819,0.1828,0.1884,0.1926,0.1983,0.201,0.2022,0.2068,0.2067,0.2104,0.2118,0.2175,0.2205,0.2183,0.2279,0.2271,0.2278,0.2257,0.2261,0.2264,0.2255,0.2192,0,0,0,0,0,0.1759,0.18,0.1853,0.1898,0.1918,0.196,0.1987,0.2007,0.2052,0.207,0.211,0.2155,0.2203,0.2234,0.2281,0.2342,0.2356,0.2367,0.2369,0.2371,0.2376,0.2413,0.2418,0.2358,0.2358,0.2358,0,0,0.1765,0.1804,0.1828,0.1896,0.193,0.1974,0.1975,0.2021,0.2054,0.2078,0.2136,0.2167,0.222,0.2281,0.231,0.2307,0.2396,0.2375,0.2376,0.238,0.2416,0.2422,0.2427,0.236,0.236,0.2359,0,0,0.1798,0.1831,0.1873,0.1907,0.1959,0.1987,0.1997,0.2053,0.2074,0.2132,0.2152,0.2193,0.2275,0.2312,0.2342,0.2391,0.2404,0.2406,0.2419,0.2454,0.2459,0.2464,0.2483,0.2489,0.2411,0.2411,0.2411,0,0.1799,0.1863,0.1893,0.1938,0.1968,0.199,0.2035,0.2067,0.2132,0.2154,0.215,0.2254,0.2291,0.2362,0.2374,0.2397,0.2411,0.2399,0.2456,0.246,0.2465,0.2484,0.2491,0.2411,0.2411,0.2411,0.2411,0,0.1863,0.1908,0.1936,0.1996,0.203,0.2074,0.2113,0.2144,0.2161,0.2191,0.2252,0.2298,0.2355,0.2373,0.2391,0.2448,0.2445,0.2448,0.2441,0.247,0.2488,0.2496,0.241,0.241,0.2411,0.2411,0,0,0.1887,0.1964,0.1974,0.2003,0.2062,0.2099,0.2145,0.22,0.2227,0.2272,0.2313,0.2382,0.2386,0.242,0.2442,0.2473,0.2511,0.2473,0.2475,0.2479,0.2579,0.2577,0.2584,0.252,0.2522,0.2523,0.2575,0,0.1928,0.2009,0.2038,0.2107,0.215,0.2173,0.2214,0.2256,0.2285,0.2328,0.2362,0.241,0.241,0.2431,0.2463,0.25,0.2532,0.2497,0.2562,0.2564,0.2548,0.2593,0.2591,0.2637,0.2582,0.2583,0.2584,0,0.1986,0.203,0.2102,0.2158,0.2177,0.2213,0.2267,0.2307,0.2357,0.2376,0.2414,0.2435,0.2488,0.2477,0.2552,0.2527,0.2556,0.2578,0.2581,0.2588,0.2576,0.2603,0.2653,0.266,0.2595,0.2595,0.2594,0,0.1997,0.2076,0.2129,0.2153,0.2219,0.2244,0.2273,0.2322,0.2354,0.2402,0.2423,0.2477,0.2507,0.2549,0.2585,0.2574,0.2657,0.2649,0.2676,0.2675,0.2693,0.2691,0.2748,0.271,0.271,0.271,0.271,0,0.204,0.2084,0.2135,0.2168,0.2219,0.2253,0.2303,0.2334,0.2377,0.2419,0.2443,0.2482,0.2526,0.2572,0.26,0.2659,0.2672,0.2691,0.2698,0.2689,0.2687,0.2708,0.2706,0.2712,0.2711,0.2711,0.271,0,0.2061,0.2097,0.2157,0.2215,0.2231,0.2266,0.2316,0.2351,0.2382,0.2434,0.2448,0.2497,0.2552,0.2592,0.2664,0.2683,0.2746,0.2753,0.2729,0.2732,0.2758,0.2755,0.2831,0.2844,0.2796,0.2797,0.2797,0,0.2086,0.212,0.2182,0.221,0.2239,0.2285,0.2317,0.2354,0.2387,0.2447,0.2475,0.2531,0.2578,0.2666,0.2709,0.2765,0.2774,0.2797,0.2782,0.2773,0.2776,0.2773,0.2778,0.2799,0.2799,0.2799,0.28,0,0.2128,0.2144,0.2188,0.224,0.2278,0.2321,0.2364,0.2387,0.2431,0.2468,0.2524,0.256,0.2633,0.2689,0.2749,0.2782,0.28,0.2804,0.2813,0.2804,0.2789,0.2799,0.2735,0.2802,0.2802,0.2801,0.2801,0.2801,0.2152,0.2184,0.2232,0.2282,0.2319,0.2359,0.2394,0.243,0.2476,0.2537,0.2556,0.2615,0.2667,0.2749,0.2782,0.283,0.283,0.2843,0.2847,0.285,0.285,0.2781,0.2841,0.2841,0.2841,0.2841,0.2841,0,0.2196,0.2228,0.2273,0.2333,0.2373,0.2383,0.2433,0.2466,0.2516,0.2562,0.2608,0.2673,0.2729,0.2777,0.2835,0.2865,0.2874,0.2879,0.2877,0.2885,0.2846,0.2833,0.287,0.287,0.287,0.287,0.287,0.287,0.2223,0.2278,0.23,0.2375,0.2408,0.2463,0.2491,0.2529,0.2566,0.2637,0.2683,0.2714,0.2762,0.2824,0.2876,0.2889,0.291,0.2913,0.2929,0.2891,0.2888,0.2884,0.2872,0.2917,0.2917,0.2964,0.2964,0.2965]}]]